Terminal Aerodrome Forecast
Issued by NWS

Home | Current Version | Previous Version | Text Only | Print | Product List | Glossary On
Versions: 1 2 3 4 5 6 7 8 9 10 11 12 13 14 15 16
215
FTUS45 KTFX 271120
TAFCTB
TAF
KCTB 271120Z 2712/2812 VRB05KT P6SM FEW025 BKN090 BKN150
     FM271700 27011KT P6SM SCT050 BKN090
     FM272000 28017G25KT P6SM VCSH SCT050 BKN080
     FM280300 27015KT P6SM SCT080 BKN150=

USA.gov is the U.S. government's official web portal to all federal, state and local government web resources and services.